| time (UTC) | temp C | wind direction | speed KPH | gust KPH | rain 1hr cm | rain 24hr cm | rain mn cm | humidity % | barometer mb |
| 20260508034233 | 10 | 61 | 0.0 | 9.7 | 0.03 | 0.10 | 0.03 | 100 | 1017.5 |
| 20260508033032 | 10 | 39 | 6.4 | 16.1 | 0.03 | 0.10 | 0.03 | 100 | 1017.3 |
| 20260508031831 | 10 | 19 | 9.7 | 14.5 | 0.03 | 0.10 | 0.03 | 100 | 1017.4 |
| 20260508030631 | 10 | 109 | 3.2 | 11.3 | 0.03 | 0.10 | 0.03 | 100 | 1017.4 |
| 20260508025430 | 10 | 7 | 3.2 | 8.0 | 0.00 | 0.08 | 0.00 | 100 | 1017.7 |
| 20260508024229 | 10 | 331 | 9.7 | 11.3 | 0.00 | 0.08 | 0.00 | 100 | 1017.6 |
| 20260508023029 | 10 | 296 | 8.0 | 14.5 | 0.00 | 0.08 | 0.00 | 100 | 1017.7 |
| 20260508021828 | 10 | 312 | 3.2 | 9.7 | 0.00 | 0.08 | 0.00 | 100 | 1017.5 |
| 20260508020627 | 10 | 358 | 8.0 | 16.1 | 0.00 | 0.08 | 0.00 | 100 | 1017.4 |
| 20260508015427 | 10 | 352 | 8.0 | 9.7 | 0.00 | 0.08 | 0.00 | 100 | 1017.4 |
| 20260508014226 | 10 | 347 | 6.4 | 9.7 | 0.00 | 0.08 | 0.00 | 100 | 1017.1 |
| 20260508013025 | 10 | 315 | 4.8 | 17.7 | 0.00 | 0.08 | 0.00 | 100 | 1017.0 |
| 20260508011825 | 11 | 345 | 3.2 | 8.0 | 0.00 | 0.08 | 0.00 | 100 | 1017.0 |
| 20260508010624 | 10 | 355 | 9.7 | 12.9 | 0.00 | 0.08 | 0.00 | 100 | 1016.9 |
| 20260508005423 | 11 | 7 | 12.9 | 12.9 | 0.00 | 0.08 | 0.00 | 100 | 1016.9 |
| 20260508004223 | 11 | 354 | 6.4 | 12.9 | 0.00 | 0.08 | 0.00 | 100 | 1017.0 |
| 20260508003022 | 11 | 15 | 3.2 | 6.4 | 0.00 | 0.08 | 0.00 | 100 | 1017.1 |
| 20260508001821 | 11 | 320 | 6.4 | 11.3 | 0.00 | 0.08 | 0.00 | 100 | 1017.1 |
| 20260508000621 | 11 | 344 | 6.4 | 9.7 | 0.00 | 0.08 | 0.00 | 100 | 1017.2 |
| 20260507235420 | 11 | 334 | 8.0 | 14.5 | 0.00 | 0.08 | 0.00 | 100 | 1017.2 |
| 20260507234219 | 11 | 315 | 4.8 | 12.9 | 0.00 | 0.08 | 0.00 | 100 | 1017.3 |
| 20260507233019 | 11 | 329 | 9.7 | 11.3 | 0.00 | 0.08 | 0.00 | 100 | 1017.3 |
| 20260507231818 | 11 | 298 | 1.6 | 8.0 | 0.00 | 0.08 | 0.00 | 100 | 1017.2 |
| 20260507230617 | 11 | 313 | 1.6 | 6.4 | 0.00 | 0.08 | 0.00 | 100 | 1017.2 |
| 20260507225416 | 11 | 296 | 4.8 | 6.4 | 0.00 | 0.08 | 0.00 | 100 | 1017.3 |
| 20260507224216 | 11 | 277 | 4.8 | 8.0 | 0.00 | 0.08 | 0.00 | 100 | 1017.4 |
| 20260507223015 | 12 | 354 | 0.0 | 3.2 | 0.00 | 0.08 | 0.00 | 100 | 1017.4 |
| 20260507221814 | 12 | 265 | 6.4 | 8.0 | 0.00 | 0.08 | 0.00 | 100 | 1017.4 |
| 20260507220614 | 11 | 2 | 1.6 | 9.7 | 0.00 | 0.08 | 0.00 | 100 | 1017.2 |
| 20260507215413 | 12 | 305 | 0.0 | 3.2 | 0.00 | 0.08 | 0.08 | 100 | 1017.1 |
| 20260507214212 | 11 | 243 | 0.0 | 11.3 | 0.00 | 0.08 | 0.08 | 100 | 1017.0 |
| 20260507213012 | 11 | 358 | 9.7 | 14.5 | 0.00 | 0.08 | 0.08 | 100 | 1017.0 |
| 20260507211811 | 12 | 300 | 1.6 | 11.3 | 0.00 | 0.08 | 0.08 | 100 | 1017.0 |
| 20260507210610 | 11 | 302 | 0.0 | 9.7 | 0.00 | 0.08 | 0.08 | 100 | 1016.9 |
| 20260507205410 | 11 | 331 | 11.3 | 12.9 | 0.00 | 0.08 | 0.08 | 100 | 1016.8 |
| 20260507205012 | 11 | 354 | 4.8 | 14.5 | 0.00 | 0.08 | 0.08 | 100 | 1016.8 |
| 20260507204209 | 11 | 313 | 6.4 | 11.3 | 0.00 | 0.08 | 0.08 | 100 | 1016.7 |
| 20260507203008 | 11 | 22 | 4.8 | 12.9 | 0.00 | 0.08 | 0.08 | 100 | 1016.4 |
| 20260507201808 | 11 | 1 | 3.2 | 22.5 | 0.00 | 0.08 | 0.08 | 100 | 1016.3 |
| 20260507200607 | 12 | 330 | 17.7 | 22.5 | 0.00 | 0.08 | 0.08 | 100 | 1016.3 |
| 20260507195406 | 12 | 333 | 12.9 | 17.7 | 0.00 | 0.08 | 0.08 | 100 | 1016.0 |
| 20260507194206 | 12 | 307 | 14.5 | 22.5 | 0.00 | 0.08 | 0.08 | 100 | 1015.9 |
| 20260507193005 | 12 | 354 | 9.7 | 17.7 | 0.00 | 0.08 | 0.08 | 100 | 1015.8 |
| 20260507191804 | 12 | 307 | 9.7 | 16.1 | 0.00 | 0.08 | 0.08 | 100 | 1015.8 |
| 20260507190604 | 13 | 337 | 0.0 | 9.7 | 0.00 | 0.08 | 0.08 | 100 | 1015.7 |
| 20260507185403 | 13 | 299 | 4.8 | 16.1 | 0.00 | 0.08 | 0.08 | 100 | 1015.3 |
| 20260507184202 | 13 | 278 | 3.2 | 16.1 | 0.00 | 0.08 | 0.08 | 100 | 1015.1 |
| 20260507183001 | 13 | 355 | 9.7 | 12.9 | 0.03 | 0.08 | 0.08 | 100 | 1015.2 |
| 20260507181801 | 13 | 316 | 3.2 | 9.7 | 0.08 | 0.08 | 0.08 | 100 | 1015.2 |
| 20260507180600 | 13 | 322 | 12.9 | 19.3 | 0.08 | 0.08 | 0.08 | 100 | 1014.7 |
| 20260507175359 | 14 | 324 | 11.3 | 27.4 | 0.08 | 0.08 | 0.08 | 100 | 1014.2 |
| 20260507174159 | 14 | 331 | 9.7 | 22.5 | 0.08 | 0.08 | 0.08 | 100 | 1014.1 |
| 20260507172958 | 15 | 329 | 16.1 | 17.7 | 0.05 | 0.05 | 0.05 | 100 | 1013.9 |
| 20260507171757 | 16 | 309 | 9.7 | 24.1 | 0.00 | 0.00 | 0.00 | 100 | 1014.1 |
| 20260507170557 | 17 | 324 | 11.3 | 29.0 | 0.00 | 0.00 | 0.00 | 100 | 1013.6 |
| 20260507165356 | 18 | 279 | 9.7 | 17.7 | 0.00 | 0.00 | 0.00 | 100 | 1013.0 |
| 20260507164155 | 19 | 244 | 9.7 | 9.7 | 0.00 | 0.00 | 0.00 | 100 | 1012.9 |
| 20260507163356 | 20 | 286 | 6.4 | 6.4 | 0.00 | 0.00 | 0.00 | 100 | 1012.7 |
| 20260507162955 | 20 | 277 | 3.2 | 6.4 | 0.00 | 0.00 | 0.00 | 100 | 1012.7 |
| 20260507161754 | 20 | 254 | 3.2 | 9.7 | 0.00 | 0.00 | 0.00 | 100 | 1012.5 |
| 20260507160553 | 20 | 265 | 4.8 | 6.4 | 0.00 | 0.00 | 0.00 | 100 | 1012.4 |
| 20260507155353 | 20 | 254 | 8.0 | 9.7 | 0.00 | 0.00 | 0.00 | 100 | 1012.6 |
| 20260507154152 | 20 | 285 | 3.2 | 12.9 | 0.00 | 0.00 | 0.00 | 100 | 1012.5 |
| 20260507152951 | 20 | 295 | 14.5 | 20.9 | 0.00 | 0.00 | 0.00 | 100 | 1012.6 |
| 20260507151751 | 21 | 217 | 12.9 | 16.1 | 0.00 | 0.00 | 0.00 | 100 | 1012.5 |
| 20260507150550 | 21 | 188 | 8.0 | 19.3 | 0.00 | 0.00 | 0.00 | 100 | 1012.4 |
| 20260507145349 | 21 | 184 | 12.9 | 17.7 | 0.00 | 0.00 | 0.00 | 100 | 1012.4 |
| 20260507144149 | 21 | 222 | 14.5 | 16.1 | 0.00 | 0.00 | 0.00 | 100 | 1012.4 |
| 20260507142948 | 21 | 195 | 8.0 | 14.5 | 0.00 | 0.00 | 0.00 | 100 | 1012.3 |
| 20260507141747 | 22 | 196 | 6.4 | 17.7 | 0.00 | 0.00 | 0.00 | 100 | 1012.3 |
| 20260507140547 | 22 | 223 | 4.8 | 12.9 | 0.00 | 0.00 | 0.00 | 100 | 1012.3 |
| 20260507135346 | 22 | 234 | 12.9 | 19.3 | 0.00 | 0.00 | 0.00 | 100 | 1012.3 |
| 20260507134145 | 22 | 244 | 14.5 | 17.7 | 0.00 | 0.00 | 0.00 | 100 | 1012.4 |
| 20260507132944 | 22 | 226 | 14.5 | 19.3 | 0.00 | 0.00 | 0.00 | 100 | 1012.5 |
| 20260507131744 | 22 | 236 | 14.5 | 20.9 | 0.00 | 0.00 | 0.00 | 100 | 1012.5 |
| 20260507130543 | 22 | 229 | 20.9 | 22.5 | 0.00 | 0.00 | 0.00 | 100 | 1012.7 |
| 20260507125342 | 22 | 264 | 6.4 | 20.9 | 0.00 | 0.00 | 0.00 | 100 | 1012.6 |
| 20260507124142 | 22 | 174 | 11.3 | 17.7 | 0.00 | 0.00 | 0.00 | 100 | 1012.7 |
| 20260507122941 | 22 | 168 | 9.7 | 22.5 | 0.00 | 0.00 | 0.00 | 100 | 1012.6 |
| 20260507121740 | 22 | 253 | 9.7 | 19.3 | 0.00 | 0.00 | 0.00 | 100 | 1012.6 |
| 20260507120540 | 22 | 205 | 4.8 | 17.7 | 0.00 | 0.00 | 0.00 | 100 | 1012.6 |
| 20260507115339 | 23 | 233 | 11.3 | 29.0 | 0.00 | 0.00 | 0.00 | 100 | 1012.6 |
| 20260507114138 | 23 | 219 | 14.5 | 16.1 | 0.00 | 0.00 | 0.00 | 100 | 1012.7 |
| 20260507112938 | 22 | 247 | 8.0 | 20.9 | 0.00 | 0.00 | 0.00 | 100 | 1012.7 |
| 20260507111737 | 22 | 192 | 17.7 | 25.7 | 0.00 | 0.00 | 0.00 | 100 | 1012.7 |
| 20260507110536 | 23 | 185 | 8.0 | 24.1 | 0.00 | 0.00 | 0.00 | 100 | 1012.7 |
| 20260507105336 | 22 | 215 | 8.0 | 24.1 | 0.00 | 0.00 | 0.00 | 100 | 1012.6 |
| 20260507104135 | 22 | 240 | 9.7 | 30.6 | 0.00 | 0.00 | 0.00 | 100 | 1012.5 |
| 20260507102934 | 22 | 213 | 16.1 | 19.3 | 0.00 | 0.00 | 0.00 | 100 | 1012.6 |
| 20260507101734 | 21 | 222 | 9.7 | 19.3 | 0.00 | 0.00 | 0.00 | 100 | 1012.6 |
| 20260507100533 | 21 | 225 | 17.7 | 24.1 | 0.00 | 0.00 | 0.00 | 100 | 1012.6 |
| 20260507095332 | 20 | 274 | 8.0 | 20.9 | 0.00 | 0.00 | 0.00 | 100 | 1012.5 |
| 20260507094132 | 21 | 248 | 16.1 | 22.5 | 0.00 | 0.00 | 0.00 | 100 | 1012.4 |
| 20260507092931 | 21 | 194 | 12.9 | 24.1 | 0.00 | 0.00 | 0.00 | 100 | 1012.3 |
| 20260507091730 | 21 | 205 | 14.5 | 27.4 | 0.00 | 0.00 | 0.00 | 100 | 1012.2 |
| 20260507090529 | 21 | 219 | 8.0 | 20.9 | 0.00 | 0.00 | 0.00 | 100 | 1012.1 |
| 20260507085329 | 21 | 170 | 12.9 | 24.1 | 0.00 | 0.00 | 0.00 | 100 | 1011.9 |
| 20260507084128 | 21 | 195 | 9.7 | 19.3 | 0.00 | 0.00 | 0.00 | 100 | 1011.8 |
| 20260507082927 | 21 | 216 | 6.4 | 19.3 | 0.00 | 0.00 | 0.00 | 100 | 1011.7 |
| 20260507081727 | 21 | 225 | 9.7 | 20.9 | 0.00 | 0.00 | 0.00 | 100 | 1011.6 |
| 20260507080526 | 20 | 248 | 14.5 | 22.5 | 0.00 | 0.00 | 0.00 | 100 | 1011.5 |
| 20260507075325 | 20 | 209 | 11.3 | 12.9 | 0.00 | 0.00 | 0.00 | 100 | 1011.5 |
| 20260507074125 | 20 | 209 | 6.4 | 17.7 | 0.00 | 0.00 | 0.00 | 100 | 1011.3 |
| 20260507072924 | 19 | 201 | 4.8 | 14.5 | 0.00 | 0.00 | 0.00 | 100 | 1011.3 |
| 20260507071723 | 18 | 189 | 16.1 | 19.3 | 0.00 | 0.00 | 0.00 | 100 | 1011.3 |
| 20260507070523 | 17 | 189 | 8.0 | 16.1 | 0.00 | 0.00 | 0.00 | 100 | 1011.2 |
| 20260507065322 | 17 | 187 | 12.9 | 17.7 | 0.00 | 0.00 | 0.00 | 100 | 1011.2 |
| 20260507064121 | 16 | 192 | 14.5 | 19.3 | 0.00 | 0.00 | 0.00 | 100 | 1011.1 |
| 20260507062921 | 16 | 202 | 8.0 | 14.5 | 0.00 | 0.00 | 0.00 | 100 | 1010.9 |
| 20260507061720 | 16 | 182 | 8.0 | 12.9 | 0.00 | 0.00 | 0.00 | 100 | 1010.9 |
| 20260507060519 | 16 | 149 | 3.2 | 6.4 | 0.00 | 0.00 | 0.00 | 100 | 1010.8 |
| 20260507055319 | 16 | 168 | 0.0 | 1.6 | 0.00 | 0.00 | 0.00 | 100 | 1010.7 |
| 20260507054118 | 15 | 151 | 1.6 | 4.8 | 0.00 | 0.00 | 0.00 | 100 | 1010.6 |
| 20260507052917 | 15 | 135 | 1.6 | 1.6 | 0.00 | 0.00 | 0.00 | 100 | 1010.4 |
| 20260507051717 | 15 | 147 | 0.0 | 3.2 | 0.00 | 0.00 | 0.00 | 100 | 1010.3 |
| 20260507050516 | 14 | 212 | 1.6 | 1.6 | 0.00 | 0.00 | 0.00 | 100 | 1010.3 |
| 20260507045315 | 14 | 199 | 0.0 | 4.8 | 0.00 | 0.00 | 0.00 | 100 | 1010.3 |
| 20260507044115 | 14 | 254 | 1.6 | 4.8 | 0.00 | 0.00 | 0.00 | 100 | 1010.0 |
| 20260507042914 | 13 | 258 | 0.0 | 0.0 | 0.00 | 0.00 | 0.00 | 100 | 1009.8 |
| 20260507041713 | 13 | 282 | 3.2 | 3.2 | 0.00 | 0.00 | 0.00 | 100 | 1009.6 |
| 20260507040512 | 13 | 146 | 0.0 | 0.0 | 0.00 | 0.00 | 0.00 | 100 | 1009.6 |
| 20260507035312 | 13 | 146 | 0.0 | 1.6 | 0.00 | 0.00 | 0.00 | 100 | 1009.4 |